Location: C�rrego do Retiro
(4.6000°S, 37.7500°W)
Time: 05:53:50
(UTC+00:00)

Daily predictions for brighter satellites

Satellite Brightness Start Highest point End
(mag) Time Altitude Azimuth Time Altitude Azimuth Time Altitude Azimuth
Cosmos 2360 Rocket 4.4 05:38:26 21° E 05:38:26 21° E 05:41:36 10° ENE
Cosmos 2297 Rocket 4.1 05:56:27 22° SE 05:56:27 22° SE 05:58:30 10° SSE
Ariane 42L Rocket 4.2 06:06:04 76° WSW 06:06:59 87° S 06:12:14 10° E
Milstar 3 Cent rocket 4.3 06:03:10 48° NNW 06:07:24 71° NE 06:30:41 10° ESE
USA 229 DEB 4.4 06:12:13 50° S 06:12:13 50° S 06:17:45 10° SSE
USA 229 4.3 06:12:13 51° S 06:12:13 51° S 06:17:50 10° SSE
Ariane H10+ 2.8 06:10:49 84° NE 06:10:49 84° NE 06:14:43 10° E
NOSS 3-1 (A) 4.2 06:21:03 56° NW 06:23:15 77° WSW 06:32:06 10° SSE
H-2A R/B (2) 4.3 06:24:44 17° N 06:28:26 31° NE 06:47:26 10° ESE
Cosmos 2208 Rocket 4.3 06:28:26 40° SSE 06:30:16 65° ESE 06:35:30 10° NNE
Cosmos 2333 Rocket 4.1 06:31:39 10° SSE 06:36:35 29° ESE 06:41:30 10° NE
Atlas Centaur 2 3.7 06:36:52 15° SSE 06:37:59 16° SSE 06:40:54 10° ESE
Cosmos 1238 Rocket 3.3 06:39:04 10° N 06:44:48 75° W 06:49:34 10° S
Aurora 2 Rocket 3.0 06:44:52 49° SSE 06:44:52 49° SSE 06:49:35 10° ENE
Cosmos 1777 Rocket 4.2 06:40:07 10° N 06:45:15 68° ENE 06:50:25 10° SSE
Cosmos 2322 4.4 06:41:36 10° S 06:47:10 54° ESE 06:52:40 10° NNE
GEOS 3 Rocket 3.6 06:42:52 10° NNE 06:48:09 84° ESE 06:51:08 26° SSW
Cosmos 2227 Rocket 2.6 06:50:53 44° SW 06:50:53 44° SW 06:55:22 10° S
CZ-4B R/B 4.5 06:46:46 10° NE 06:49:58 31° ESE 06:53:14 10° SSE
CZ-4B R/B 4.2 06:46:12 10° NNE 06:50:40 76° ESE 06:55:08 10° S
Cosmos 1934 Rocket 4.0 06:47:49 10° NNW 06:53:43 53° W 06:59:45 10° S
USA 281 4.2 06:47:53 10° NE 06:54:04 45° ESE 07:00:16 10° S
IRIDIUM 114 4.2 06:51:08 10° N 06:56:20 89° W 07:01:34 10° S
Cosmos 1814 Rocket 3.9 06:55:32 42° SW 06:57:03 61° WNW 07:02:06 10° N
Meteor 1-27 Rocket 3.9 06:54:47 28° SW 06:57:36 48° W 07:03:15 10° NNW
Ariane H10+ 3.2 06:57:00 41° NW 06:58:04 49° N 07:02:35 10° ENE
CZ-3A R/B 2.6 06:56:16 28° WSW 07:00:20 76° SSE 07:03:17 10° ENE
Cosmos 841 Rocket 4.2 07:03:36 33° NW 07:03:36 33° NW 07:07:11 10° NNW
ISS -3.8 07:03:03 81° SSE 07:03:03 81° SSE 07:06:17 10° SE
ADEOS 3.9 06:58:31 10° N 07:03:22 41° WNW 07:03:37 40° W
Cosmos 1862 Rocket 3.4 06:59:07 10° S 07:03:37 86° W 07:08:02 10° N
Cosmos 1000 Rocket 4.4 06:57:33 10° S 07:03:51 75° W 07:10:04 10° N
Cosmos 2333 4.2 06:58:57 10° SSW 07:04:42 87° ESE 07:10:27 10° NNE
IRIDIUM 103 4.2 07:00:17 10° N 07:05:27 69° W 07:10:39 10° S
Cosmos 1437 Rocket 3.1 07:05:16 10° S 07:09:02 62° E 07:12:44 10° NNE
ERS-2 2.5 07:06:04 10° SSE 07:09:42 64° ENE 07:13:18 10° N
H-2A R/B 2.1 07:09:14 10° S 07:13:16 50° WSW 07:17:23 10° NNW
Hubble Space Telescope 2.2 07:13:49 22° NW 07:13:59 23° NNW 07:17:15 10° NNE
Ariane H10 4.0 07:12:33 27° W 07:16:55 79° S 07:37:58 10° E
Cosmos 1605 Rocket 4.1 07:10:50 10° NNW 07:17:02 56° W 07:23:14 10° S
ALOS 2.7 07:13:44 10° N 07:18:02 39° WNW 07:22:24 10° SSW
Cosmos 1484 Rocket 3.8 07:16:49 10° NNW 07:19:33 27° WNW 07:19:33 27° WNW
Cosmos 1869 Rocket 3.4 07:16:18 10° NNW 07:20:33 65° W 07:24:52 10° S
Meteor 2-20 4.4 07:14:42 10° SSW 07:20:50 67° W 07:26:54 10° N
Cosmos 2360 Rocket 3.1 07:20:22 25° W 07:21:00 25° WNW 07:25:34 10° NNW
ARIANE 5 R/B 1.5 07:25:43 28° NNW 07:26:02 30° N 07:28:08 10° ENE
Meteor 1-31 Rocket 3.8 07:27:51 10° NNW 07:31:00 24° W 07:33:36 13° SW
SJ 16-02 2.1 07:31:36 10° N 07:35:54 56° E 07:40:13 10° SSE
Cosmos 1515 3.6 07:33:25 10° S 07:37:15 89° ESE 07:41:03 10° N
GPS 2-14 Rocket1 3.8 07:33:54 12° SW 07:37:27 41° SSE 07:41:24 10° E
CZ-4B R/B 1.0 07:38:10 10° S 07:41:12 76° WSW 07:44:14 10° NNW
Meteor PRIRODA 4.0 07:38:21 10° N 07:41:46 40° W 07:45:11 10° SSW
Cosmos 2123 Rocket 4.1 07:40:03 10° SSW 07:46:03 52° W 07:52:02 10° NNW
ARIANE 5 DEB (SYLDA) 4.4 07:26:09 15° W 07:46:26 78° N 07:51:08 10° E
Shenzhou-11 Module 4.2 07:46:08 10° N 07:47:24 14° NE 07:48:41 10° E
Cosmos 2100 Rocket 4.0 07:45:28 10° N 07:51:49 82° W 07:58:08 10° S
PSLV R/B 3.7 07:47:59 10° N 07:51:52 73° W 07:55:51 10° SSW
GPS 2-17 Rocket1 3.0 07:47:42 10° WNW 07:52:18 83° SSW 07:56:51 10° ESE
GPS 2-12 Rocket1 3.3 07:48:27 12° W 07:52:31 52° NNW 07:56:49 10° NE
Cosmos 1802 Rocket 4.4 07:48:04 10° N 07:54:19 73° E 08:00:41 10° S
SWIFT 2.4 07:50:25 10° WSW 07:54:41 72° NNW 07:58:56 10° ENE
OAO 2 Rocket 4.3 07:50:56 10° SW 07:56:04 48° SE 08:01:11 10° ENE
FALCON 9 DEB 2.9 07:54:50 10° SW 07:58:01 64° NW 08:01:09 10° NNE
Cosmos 1703 Rocket 3.6 07:54:37 10° SSW 07:58:53 54° W 08:03:05 10° N
Cosmos 990 Rocket 4.4 07:57:03 10° N 08:02:14 72° ENE 08:07:28 10° SSE
Cosmos 2242 Rocket 4.3 07:58:48 10° SSW 08:02:46 33° W 08:06:42 10° NNW
YAOGAN 6 3.8 08:01:25 10° NNE 08:04:55 48° E 08:08:31 10° S
Cosmos 2263 Rocket 2.3 08:01:35 10° NNW 08:07:15 88° ENE 08:12:57 10° SSE
